| time (UTC) | temp C | wind direction | speed KPH | gust KPH | rain 1hr cm | rain 24hr cm | rain mn cm | humidity % | barometer mb |
| 20260904021607 | 13 | 344 | 0.0 | 4.8 | 0.00 | 0.00 | 0.00 | 49 | 1011.6 |
| 20260904020058 | 15 | 319 | 0.0 | 0.0 | 0.00 | 0.00 | 0.00 | 47 | 1011.5 |
| 20260904014636 | 16 | 320 | 0.0 | 3.2 | 0.00 | 0.00 | 0.00 | 45 | 1011.4 |
| 20260904013055 | 17 | 320 | 0.0 | 4.8 | 0.00 | 0.00 | 0.00 | 42 | 1011.6 |
| 20260904011559 | 19 | 307 | 0.0 | 8.0 | 0.00 | 0.00 | 0.00 | 39 | 1011.6 |
| 20260904004553 | 20 | 290 | 3.2 | 11.3 | 0.00 | 0.03 | 0.00 | 37 | 1011.4 |
| 20260904003057 | 21 | 297 | 4.8 | 20.9 | 0.00 | 0.03 | 0.00 | 36 | 1011.3 |
| 20260904001549 | 21 | 272 | 9.7 | 19.3 | 0.00 | 0.03 | 0.00 | 35 | 1011.3 |
| 20260904000046 | 22 | 329 | 6.4 | 16.1 | 0.00 | 0.10 | 0.00 | 36 | 1011.2 |
| 20260903234542 | 22 | 276 | 1.6 | 12.9 | 0.00 | 0.10 | 0.00 | 34 | 1010.9 |
| 20260903233051 | 22 | 300 | 3.2 | 24.1 | 0.00 | 0.10 | 0.00 | 34 | 1010.9 |
| 20260903231542 | 22 | 312 | 3.2 | 19.3 | 0.00 | 0.10 | 0.00 | 34 | 1011.0 |
| 20260903230048 | 23 | 302 | 6.4 | 12.9 | 0.00 | 0.10 | 0.00 | 34 | 1010.8 |
| 20260903224538 | 23 | 293 | 3.2 | 16.1 | 0.00 | 0.10 | 0.00 | 35 | 1010.7 |
| 20260903223034 | 23 | 260 | 3.2 | 8.0 | 0.00 | 0.10 | 0.00 | 36 | 1010.4 |
| 20260903221534 | 22 | 266 | 4.8 | 12.9 | 0.00 | 0.10 | 0.00 | 36 | 1010.3 |
| 20260903220040 | 24 | 240 | 4.8 | 12.9 | 0.00 | 0.10 | 0.00 | 33 | 1010.2 |
| 20260903214502 | 24 | 254 | 6.4 | 20.9 | 0.00 | 0.10 | 0.00 | 32 | 1010.0 |
| 20260903213101 | 23 | 314 | 3.2 | 8.0 | 0.00 | 0.10 | 0.00 | 35 | 1009.9 |
| 20260903211600 | 23 | 237 | 3.2 | 12.9 | 0.00 | 0.10 | 0.00 | 33 | 1009.8 |
| 20260903210101 | 22 | 227 | 3.2 | 12.9 | 0.00 | 0.10 | 0.00 | 34 | 1009.9 |
| 20260903204556 | 22 | 243 | 4.8 | 9.7 | 0.00 | 0.10 | 0.00 | 34 | 1009.9 |
| 20260903203105 | 22 | 283 | 1.6 | 9.7 | 0.00 | 0.10 | 0.00 | 36 | 1009.9 |
| 20260903201554 | 22 | 269 | 4.8 | 12.9 | 0.00 | 0.10 | 0.00 | 36 | 1010.0 |
| 20260903200023 | 22 | 248 | 1.6 | 11.3 | 0.00 | 0.10 | 0.00 | 36 | 1010.1 |
| 20260903194523 | 23 | 269 | 8.0 | 19.3 | 0.00 | 0.10 | 0.00 | 35 | 1010.2 |
| 20260903193020 | 22 | 302 | 4.8 | 22.5 | 0.00 | 0.10 | 0.00 | 36 | 1010.1 |
| 20260903191519 | 23 | 245 | 6.4 | 12.9 | 0.00 | 0.10 | 0.00 | 34 | 1010.1 |
| 20260903190018 | 23 | 238 | 8.0 | 20.9 | 0.00 | 0.10 | 0.00 | 35 | 1010.0 |
| 20260903184515 | 22 | 238 | 12.9 | 25.7 | 0.00 | 0.10 | 0.00 | 36 | 1010.0 |
| 20260903183010 | 22 | 246 | 14.5 | 24.1 | 0.00 | 0.10 | 0.00 | 36 | 1009.8 |
| 20260903181509 | 22 | 250 | 17.7 | 29.0 | 0.00 | 0.10 | 0.00 | 36 | 1009.8 |
| 20260903180007 | 21 | 210 | 8.0 | 20.9 | 0.00 | 0.10 | 0.00 | 39 | 1009.9 |
| 20260903174505 | 21 | 233 | 8.0 | 20.9 | 0.00 | 0.10 | 0.00 | 40 | 1010.2 |
| 20260903173101 | 21 | 222 | 8.0 | 16.1 | 0.00 | 0.10 | 0.00 | 43 | 1010.2 |
| 20260903171558 | 20 | 246 | 3.2 | 12.9 | 0.00 | 0.10 | 0.00 | 49 | 1010.3 |
| 20260903170054 | 18 | 231 | 4.8 | 17.7 | 0.00 | 0.10 | 0.00 | 50 | 1010.4 |
| 20260903164548 | 17 | 226 | 4.8 | 11.3 | 0.00 | 0.10 | 0.00 | 53 | 1010.5 |
| 20260903163039 | 16 | 236 | 1.6 | 6.4 | 0.00 | 0.10 | 0.00 | 57 | 1010.3 |
| 20260903161536 | 13 | 257 | 0.0 | 0.0 | 0.00 | 0.10 | 0.00 | 68 | 1010.4 |
| 20260903160031 | 12 | 243 | 0.0 | 1.6 | 0.00 | 0.10 | 0.00 | 71 | 1010.5 |
| 20260903154528 | 11 | 27 | 0.0 | 0.0 | 0.00 | 0.10 | 0.00 | 76 | 1010.4 |
| 20260903153022 | 11 | 27 | 0.0 | 4.8 | 0.00 | 0.10 | 0.00 | 77 | 1010.5 |
| 20260903151521 | 10 | 191 | 0.0 | 1.6 | 0.00 | 0.10 | 0.00 | 80 | 1010.6 |
| 20260903150035 | 10 | 174 | 0.0 | 6.4 | 0.00 | 0.10 | 0.00 | 80 | 1010.5 |
| 20260903144526 | 10 | 173 | 0.0 | 3.2 | 0.00 | 0.10 | 0.00 | 83 | 1010.5 |
| 20260903143048 | 8 | 156 | 0.0 | 1.6 | 0.00 | 0.10 | 0.00 | 86 | 1010.3 |
| 20260903141548 | 6 | 233 | 0.0 | 1.6 | 0.00 | 0.10 | 0.00 | 90 | 1010.3 |
| 20260903140033 | 5 | 220 | 0.0 | 0.0 | 0.00 | 0.10 | 0.00 | 91 | 1010.2 |
| 20260903134512 | 5 | 338 | 0.0 | 0.0 | 0.00 | 0.10 | 0.00 | 90 | 1010.0 |
| 20260903133008 | 3 | 100 | 0.0 | 0.0 | 0.00 | 0.10 | 0.00 | 90 | 1009.8 |
| 20260903131507 | 3 | 100 | 0.0 | 3.2 | 0.00 | 0.10 | 0.00 | 89 | 1009.6 |
| 20260903130005 | 3 | 179 | 0.0 | 1.6 | 0.00 | 0.10 | 0.00 | 90 | 1009.3 |
| 20260903124504 | 3 | 129 | 0.0 | 0.0 | 0.00 | 0.10 | 0.00 | 89 | 1009.2 |
| 20260903123100 | 3 | 134 | 0.0 | 1.6 | 0.00 | 0.10 | 0.00 | 89 | 1009.1 |
| 20260903123001 | 3 | 241 | 0.0 | 1.6 | 0.00 | 0.10 | 0.00 | 89 | 1009.1 |
| 20260903121600 | 3 | 241 | 0.0 | 3.2 | 0.00 | 0.10 | 0.00 | 89 | 1008.8 |
| 20260903120113 | 3 | 153 | 0.0 | 4.8 | 0.00 | 0.10 | 0.00 | 89 | 1008.9 |
| 20260903114557 | 3 | 233 | 0.0 | 1.6 | 0.00 | 0.10 | 0.00 | 89 | 1009.0 |
| 20260903113058 | 3 | 285 | 0.0 | 0.0 | 0.00 | 0.10 | 0.00 | 89 | 1009.0 |
| 20260903111552 | 3 | 285 | 0.0 | 1.6 | 0.00 | 0.10 | 0.00 | 88 | 1009.2 |
| 20260903110053 | 3 | 300 | 0.0 | 4.8 | 0.00 | 0.10 | 0.00 | 88 | 1009.2 |
| 20260903104546 | 3 | 297 | 0.0 | 3.2 | 0.00 | 0.10 | 0.00 | 88 | 1009.4 |
| 20260903103042 | 4 | 174 | 0.0 | 0.0 | 0.00 | 0.10 | 0.00 | 88 | 1009.4 |
| 20260903101540 | 4 | 222 | 0.0 | 1.6 | 0.00 | 0.10 | 0.00 | 87 | 1009.3 |
| 20260903100038 | 4 | 217 | 0.0 | 0.0 | 0.00 | 0.10 | 0.00 | 86 | 1009.1 |
| 20260903094539 | 5 | 217 | 0.0 | 0.0 | 0.00 | 0.10 | 0.00 | 87 | 1009.0 |
| 20260903093029 | 5 | 204 | 0.0 | 1.6 | 0.00 | 0.10 | 0.00 | 85 | 1009.1 |
| 20260903091528 | 6 | 355 | 0.0 | 3.2 | 0.00 | 0.10 | 0.00 | 84 | 1008.8 |
| 20260903090024 | 6 | 53 | 0.0 | 1.6 | 0.00 | 0.10 | 0.00 | 84 | 1008.8 |
| 20260903084538 | 7 | 152 | 0.0 | 0.0 | 0.00 | 0.10 | 0.00 | 81 | 1008.7 |
| 20260903083014 | 8 | 226 | 0.0 | 3.2 | 0.00 | 0.10 | 0.00 | 80 | 1008.7 |
| 20260903081512 | 8 | 238 | 0.0 | 4.8 | 0.00 | 0.10 | 0.00 | 80 | 1008.7 |
| 20260903080009 | 8 | 224 | 1.6 | 6.4 | 0.00 | 0.10 | 0.00 | 80 | 1008.7 |
| 20260903074506 | 9 | 229 | 1.6 | 11.3 | 0.00 | 0.10 | 0.00 | 80 | 1008.4 |
| 20260903073006 | 10 | 177 | 0.0 | 4.8 | 0.00 | 0.10 | 0.00 | 81 | 1008.5 |
| 20260903071533 | 10 | 232 | 0.0 | 1.6 | 0.00 | 0.10 | 0.00 | 79 | 1008.5 |
| 20260903070032 | 10 | 259 | 0.0 | 3.2 | 0.00 | 0.10 | 0.00 | 78 | 1008.2 |
| 20260903064558 | 10 | 278 | 0.0 | 1.6 | 0.00 | 0.10 | 0.00 | 77 | 1008.6 |
| 20260903063107 | 10 | 233 | 0.0 | 0.0 | 0.00 | 0.10 | 0.00 | 80 | 1008.7 |
| 20260903061534 | 10 | 233 | 0.0 | 0.0 | 0.00 | 0.10 | 0.00 | 78 | 1008.8 |
| 20260903060029 | 11 | 233 | 0.0 | 1.6 | 0.00 | 0.10 | 0.10 | 75 | 1008.3 |
| 20260903054519 | 11 | 236 | 3.2 | 8.0 | 0.00 | 0.10 | 0.10 | 73 | 1008.6 |
| 20260903053028 | 12 | 239 | 4.8 | 8.0 | 0.00 | 0.10 | 0.10 | 73 | 1008.8 |
| 20260903051517 | 11 | 255 | 3.2 | 4.8 | 0.00 | 0.10 | 0.10 | 73 | 1008.9 |
| 20260903050016 | 12 | 240 | 6.4 | 11.3 | 0.00 | 0.10 | 0.10 | 71 | 1008.9 |
| 20260903044514 | 12 | 246 | 9.7 | 29.0 | 0.00 | 0.10 | 0.10 | 68 | 1009.2 |
| 20260903043028 | 12 | 259 | 11.3 | 20.9 | 0.00 | 0.10 | 0.10 | 67 | 1009.2 |
| 20260903041513 | 12 | 224 | 14.5 | 33.8 | 0.00 | 0.10 | 0.10 | 66 | 1009.2 |
| 20260903040011 | 11 | 217 | 8.0 | 17.7 | 0.00 | 0.10 | 0.10 | 73 | 1009.2 |
| 20260903034509 | 11 | 241 | 4.8 | 9.7 | 0.00 | 0.10 | 0.10 | 74 | 1009.2 |
| 20260903033009 | 11 | 233 | 4.8 | 9.7 | 0.00 | 0.10 | 0.10 | 74 | 1009.1 |
| 20260903031507 | 11 | 227 | 4.8 | 9.7 | 0.00 | 0.10 | 0.10 | 75 | 1009.1 |
| 20260903030007 | 11 | 239 | 6.4 | 11.3 | 0.00 | 0.10 | 0.10 | 75 | 1008.4 |
| 20260903024505 | 11 | 247 | 1.6 | 8.0 | 0.00 | 0.10 | 0.10 | 74 | 1008.3 |
| 20260903023005 | 12 | 251 | 0.0 | 6.4 | 0.00 | 0.10 | 0.10 | 73 | 1008.8 |